[[{"header":{"parameterUnit":"m.s-1","parameterCategory":1,"la1":30.2991,"la2":30.254,"lo1":-89.0895,"lo2":-89.0444,"dy":0.0017,"dx":0.0017,"nx":28,"ny":28,"refTime":"2025-05-22T09:00:00:Z","depth":0,"parameterNumber":2,"parameterNumberName":"U-component_of_WINDS"},"data":[0,0,0,0,0,0,0,0,0,0,0,0,0,0,0,0,0,0,0,0,0,0,0,0,0,0,0,0,0,0,0,0,0,0,0,0,0,0,0,0,0,0,0,0,0,0,0,0,0,0,0,0,0,0,0,0,0,0,0.2063,0.2064,0,0.218,0.2181,0.2182,0.2235,0.2235,0.2235,0.2235,0.2354,0.2358,0.2361,0,0,0,0,0,0,0,0,0,0,0,0,0,0.1886,0.1889,0.2063,0.2064,0.2066,0.2179,0.2181,0.2183,0.2235,0.2235,0.2235,0.2235,0.2353,0.2357,0.2361,0,0,0,0,0,0,0,0,0,0,0,0,0,0.1978,0.189,0.2063,0.2106,0.2111,0.2179,0.2181,0.2183,0.2235,0.2235,0.2235,0.2235,0.2352,0.2357,0.2362,0.2396,0,0,0.2377,0.2379,0,0,0,0,0,0,0,0,0.1973,0.1985,0.2098,0.2103,0.2109,0.2193,0.2162,0.2254,0.2235,0.2188,0.2235,0.2235,0.2301,0.231,0.2332,0.2401,0.2407,0.2377,0.238,0.2382,0.2384,0,0,0,0,0,0,0,0.1967,0.198,0.2109,0.21,0.2106,0.2119,0.2132,0.218,0.2244,0.2192,0.2196,0.2209,0.2304,0.2327,0.2335,0.2408,0.2377,0.2382,0.2385,0.2387,0.2511,0.2511,0,0,0,0,0,0,0.1953,0.1974,0.2105,0.2113,0.2039,0.2123,0.2137,0.2166,0.2244,0.2255,0.2209,0.2211,0.2319,0.233,0.234,0.2385,0.2382,0.2387,0.239,0.2511,0.2511,0.2511,0,0,0,0,0,0,0.1949,0.1964,0.2101,0.2045,0.2063,0.2126,0.2158,0.2168,0.2192,0.2257,0.2268,0.2222,0.2319,0.2333,0.2381,0.239,0.2389,0.2394,0.251,0.2511,0.2511,0.2475,0,0,0,0,0,0,0.1944,0.1963,0.1976,0.2045,0.2066,0.214,0.2158,0.2171,0.22,0.2204,0.2271,0.2282,0.232,0.2374,0.2386,0.2396,0.2398,0.251,0.251,0.2511,0.2476,0.2474,0.2473,0,0,0,0,0,0.1937,0.1962,0.1977,0.1992,0.2084,0.2141,0.2153,0.2196,0.2201,0.2215,0.2256,0.228,0.2386,0.2378,0.2393,0.2405,0.2509,0.251,0.2511,0.2476,0.2474,0.2473,0,0,0,0,0,0,0.1893,0.1971,0.1989,0.2036,0.2081,0.215,0.2169,0.2192,0.2237,0.2239,0.229,0.2305,0.2349,0.2382,0.2371,0.2441,0.245,0.2454,0.2419,0.2417,0.2416,0.2407,0.2402,0,0,0,0,0,0.1888,0.1928,0.1994,0.2029,0.2051,0.2106,0.2132,0.2161,0.221,0.2229,0.2274,0.2321,0.2365,0.2393,0.2437,0.248,0.2496,0.2495,0.2494,0.2492,0.2495,0.2521,0.2521,0.2514,0.2514,0.2514,0,0,0.188,0.1927,0.1949,0.2021,0.206,0.2099,0.2122,0.2163,0.2192,0.2236,0.2284,0.2319,0.2374,0.242,0.2443,0.2449,0.2501,0.2493,0.2492,0.2496,0.2521,0.2522,0.2523,0.2514,0.2514,0.2514,0,0,0.1884,0.1924,0.1958,0.1996,0.2054,0.209,0.2098,0.2163,0.2187,0.2237,0.227,0.2306,0.238,0.2419,0.2448,0.2465,0.2489,0.2478,0.2471,0.2495,0.2496,0.2496,0.2503,0.2505,0.2481,0.2481,0.2481,0,0.1866,0.1927,0.1972,0.2011,0.2042,0.2083,0.2117,0.2152,0.2221,0.2241,0.2246,0.2341,0.2381,0.2436,0.244,0.2462,0.2473,0.2471,0.2492,0.2493,0.2495,0.2501,0.2504,0.2479,0.2479,0.2479,0.248,0,0.1903,0.1944,0.1964,0.203,0.2063,0.2099,0.2149,0.2177,0.2203,0.2238,0.2288,0.2337,0.2392,0.2407,0.2433,0.2466,0.2468,0.2482,0.2492,0.2493,0.25,0.2503,0.2477,0.2477,0.2478,0.2478,0,0,0.1883,0.1973,0.1979,0.201,0.2076,0.2109,0.2147,0.22,0.2223,0.2269,0.2302,0.2364,0.2377,0.241,0.244,0.2461,0.2472,0.2473,0.2475,0.2471,0.2512,0.2501,0.2503,0.2488,0.2488,0.2489,0.2507,0,0.1897,0.1968,0.2009,0.2062,0.2101,0.214,0.2173,0.2217,0.225,0.2288,0.2326,0.2369,0.2383,0.2403,0.2425,0.2466,0.2481,0.2465,0.2519,0.2521,0.2505,0.2507,0.2496,0.2511,0.251,0.2511,0.2511,0,0.1923,0.1969,0.2026,0.2087,0.2105,0.2134,0.2186,0.2222,0.2272,0.2295,0.2331,0.2362,0.2403,0.2409,0.2466,0.2455,0.2479,0.2502,0.2504,0.2511,0.2516,0.2515,0.2517,0.2519,0.2516,0.2516,0.2515,0,0.1904,0.1979,0.2023,0.2047,0.212,0.214,0.2171,0.2221,0.2251,0.2296,0.2315,0.2364,0.2391,0.2429,0.2471,0.2471,0.2525,0.2534,0.2545,0.2544,0.2555,0.2554,0.2562,0.257,0.257,0.257,0.257,0,0.1916,0.1949,0.2015,0.2042,0.208,0.2127,0.2164,0.2198,0.2242,0.2276,0.2313,0.2344,0.2398,0.2436,0.2469,0.2512,0.2524,0.2544,0.2552,0.2541,0.2538,0.2558,0.2558,0.257,0.257,0.257,0.257,0,0.1901,0.1946,0.1997,0.2061,0.2078,0.2104,0.2159,0.2187,0.2222,0.2265,0.2277,0.2333,0.2379,0.2425,0.2487,0.251,0.2552,0.2563,0.2535,0.254,0.2549,0.2547,0.257,0.2575,0.2579,0.2579,0.2578,0,0.1906,0.1932,0.2,0.2025,0.2056,0.2096,0.2126,0.2173,0.2202,0.2261,0.2282,0.2331,0.2372,0.2444,0.249,0.2538,0.2551,0.2556,0.2559,0.2546,0.2552,0.255,0.2553,0.2554,0.2554,0.2554,0.2554,0,0.1909,0.193,0.1972,0.2022,0.2056,0.2098,0.214,0.2159,0.2213,0.2245,0.2292,0.2325,0.2388,0.2436,0.2489,0.2521,0.2547,0.2552,0.2558,0.2546,0.2529,0.2539,0.2532,0.2552,0.2552,0.2552,0.2552,0.2552,0.1905,0.193,0.1982,0.2027,0.2064,0.2102,0.2131,0.217,0.2211,0.2266,0.2291,0.2339,0.2388,0.2462,0.2494,0.2532,0.2538,0.2546,0.2548,0.2549,0.2547,0.2522,0.2542,0.2542,0.2542,0.2542,0.2542,0,0.1911,0.1946,0.1987,0.2045,0.208,0.2101,0.2149,0.2177,0.2219,0.2263,0.2303,0.2357,0.2404,0.2453,0.2503,0.2524,0.2537,0.2535,0.2534,0.2541,0.2538,0.2528,0.2524,0.2524,0.2524,0.2524,0.2524,0.2524,0.1918,0.1962,0.1989,0.2052,0.2086,0.2134,0.2159,0.2195,0.223,0.229,0.2329,0.236,0.2406,0.2459,0.2503,0.2516,0.2533,0.2528,0.2545,0.254,0.2542,0.2543,0.2535,0.2531,0.2531,0.2545,0.2546,0.2546]},{"header":{"parameterUnit":"m.s-1","parameterCategory":1,"la1":30.2991,"la2":30.254,"lo1":-89.0895,"lo2":-89.0444,"dy":0.0017,"dx":0.0017,"nx":28,"ny":28,"refTime":"2025-05-22T09:00:00:Z","depth":0,"parameterNumber":3,"parameterNumberName":"V-component_of_WINDS"},"data":[0,0,0,0,0,0,0,0,0,0,0,0,0,0,0,0,0,0,0,0,0,0,0,0,0,0,0,0,0,0,0,0,0,0,0,0,0,0,0,0,0,0,0,0,0,0,0,0,0,0,0,0,0,0,0,0,0,0,3.4327,3.4326,0,3.4233,3.4232,3.4231,3.4152,3.4151,3.415,3.4149,3.4049,3.4047,3.4045,0,0,0,0,0,0,0,0,0,0,0,0,0,3.4432,3.4431,3.4327,3.4326,3.4325,3.4234,3.4232,3.4231,3.4152,3.4151,3.415,3.4149,3.4049,3.4047,3.4045,0,0,0,0,0,0,0,0,0,0,0,0,0,3.4368,3.443,3.4327,3.4274,3.4269,3.4234,3.4232,3.4231,3.4152,3.4151,3.415,3.4148,3.405,3.4047,3.4045,3.4053,0,0,3.4036,3.4035,0,0,0,0,0,0,0,0,3.4371,3.4364,3.4283,3.4278,3.4271,3.4203,3.4232,3.4171,3.4153,3.4196,3.4149,3.4148,3.4101,3.4094,3.4079,3.4048,3.4044,3.4036,3.4034,3.4033,3.4032,0,0,0,0,0,0,0,3.4376,3.4367,3.429,3.4282,3.4275,3.4254,3.4243,3.422,3.4157,3.4192,3.4186,3.4177,3.4097,3.4082,3.4076,3.4042,3.4036,3.4033,3.4032,3.4031,3.4014,3.4015,0,0,0,0,0,0,3.4389,3.4372,3.4293,3.4287,3.4319,3.4253,3.4241,3.4226,3.4157,3.4145,3.4178,3.4173,3.4087,3.4079,3.4072,3.4078,3.4033,3.403,3.4029,3.4013,3.4014,3.4016,0,0,0,0,0,0,3.4392,3.4383,3.4296,3.4328,3.4315,3.4253,3.4237,3.4225,3.421,3.4146,3.4134,3.4174,3.4086,3.4076,3.4059,3.4073,3.4029,3.4026,3.4011,3.4013,3.4015,3.4089,0,0,0,0,0,0,3.4395,3.4384,3.4388,3.4328,3.4314,3.4286,3.4237,3.4224,3.4205,3.4199,3.4139,3.4128,3.4084,3.4063,3.4056,3.4068,3.4024,3.401,3.4012,3.4014,3.4085,3.4093,3.41,0,0,0,0,0,3.4399,3.4411,3.4389,3.438,3.4317,3.4287,3.4279,3.4229,3.4207,3.4209,3.4169,3.413,3.4073,3.4062,3.4053,3.4065,3.4009,3.4011,3.4014,3.4082,3.4092,3.41,0,0,0,0,0,0,3.4473,3.4403,3.4377,3.437,3.4336,3.4274,3.4276,3.4242,3.4211,3.4206,3.4144,3.4132,3.4121,3.4091,3.4081,3.407,3.4035,3.4037,3.409,3.4099,3.4106,3.4114,3.4022,0,0,0,0,0,3.4488,3.4472,3.441,3.4411,3.4395,3.4339,3.4324,3.4289,3.425,3.4234,3.4192,3.4154,3.4128,3.4111,3.4083,3.408,3.4066,3.4084,3.4091,3.4098,3.41,3.4096,3.4103,3.4025,3.4025,3.4025,0,0,3.452,3.448,3.4473,3.4424,3.4394,3.4376,3.4327,3.431,3.4296,3.4231,3.4213,3.4181,3.4134,3.4124,3.4118,3.4099,3.4118,3.4102,3.4107,3.4105,3.41,3.4107,3.4114,3.4027,3.4026,3.4026,0,0,3.4569,3.4538,3.4534,3.4505,3.4459,3.4422,3.4421,3.4365,3.4342,3.4323,3.4274,3.4255,3.4211,3.418,3.4159,3.4197,3.416,3.4189,3.4229,3.4226,3.4232,3.4238,3.4252,3.4257,3.4191,3.4191,3.4191,0,3.4614,3.4588,3.4537,3.4524,3.4504,3.4446,3.4442,3.4415,3.4362,3.4349,3.4329,3.4272,3.4237,3.4219,3.4229,3.4213,3.421,3.4196,3.4236,3.4241,3.4245,3.4257,3.4263,3.4195,3.4195,3.4194,3.4194,0,3.4646,3.4628,3.4631,3.4583,3.4563,3.4555,3.4501,3.4487,3.4454,3.4418,3.4399,3.4355,3.4317,3.431,3.4277,3.4288,3.4278,3.4248,3.4212,3.4257,3.4268,3.4272,3.4201,3.4199,3.4198,3.4197,0,0,3.4739,3.4664,3.4666,3.4644,3.4589,3.4574,3.4562,3.4527,3.4516,3.4481,3.447,3.4434,3.4406,3.4382,3.4344,3.4342,3.4376,3.4312,3.431,3.4326,3.4385,3.4409,3.4415,3.4351,3.4351,3.4352,3.4389,0,3.4779,3.4758,3.4711,3.4703,3.4686,3.4631,3.462,3.4585,3.4552,3.4531,3.4492,3.4469,3.4433,3.4419,3.4414,3.4373,3.4387,3.4369,3.4338,3.4338,3.4353,3.442,3.4445,3.4482,3.4393,3.4393,3.4394,0,3.4824,3.4795,3.4787,3.4734,3.4725,3.4717,3.4681,3.4662,3.4621,3.4596,3.457,3.4529,3.4513,3.448,3.4457,3.4446,3.443,3.4408,3.4408,3.4404,3.4369,3.4418,3.4493,3.4499,3.44,3.4399,3.4399,0,3.4894,3.4852,3.4842,3.4824,3.4762,3.4758,3.4732,3.4689,3.4671,3.4639,3.4627,3.4593,3.4574,3.4548,3.4499,3.448,3.4481,3.4444,3.4459,3.4461,3.4462,3.4463,3.4536,3.4452,3.4452,3.4452,3.4452,0,3.4945,3.4942,3.4872,3.4866,3.486,3.4806,3.4802,3.477,3.4733,3.4718,3.4667,3.4654,3.459,3.4569,3.453,3.4517,3.4508,3.4487,3.4477,3.4492,3.4495,3.4482,3.4478,3.4453,3.4453,3.4452,3.4452,0,3.5022,3.4975,3.496,3.4904,3.4889,3.4888,3.4838,3.4829,3.4792,3.4775,3.4767,3.4709,3.4682,3.4631,3.4588,3.4562,3.4557,3.4539,3.4572,3.4566,3.4585,3.4584,3.4652,3.4658,3.457,3.4571,3.4572,0,3.5058,3.5055,3.4998,3.4986,3.4962,3.4942,3.4924,3.487,3.4853,3.4806,3.4803,3.4772,3.4745,3.4704,3.4657,3.4625,3.4605,3.4632,3.46,3.4616,3.4606,3.4608,3.4607,3.4639,3.464,3.4641,3.4642,0,3.5127,3.5104,3.5081,3.505,3.5031,3.5003,3.4972,3.4965,3.4903,3.4887,3.486,3.4839,3.4797,3.4767,3.4728,3.4698,3.466,3.4652,3.4654,3.467,3.469,3.468,3.4592,3.4651,3.465,3.4649,3.4649,3.4649,3.5185,3.5179,3.5139,3.5115,3.5087,3.506,3.5049,3.5012,3.4989,3.4952,3.4921,3.4896,3.4854,3.4798,3.4771,3.475,3.4732,3.4735,3.4735,3.4737,3.4744,3.4693,3.4743,3.4743,3.4742,3.4742,3.4742,0,3.5251,3.5223,3.5202,3.5162,3.5143,3.511,3.5074,3.506,3.504,3.5005,3.498,3.4948,3.4919,3.4871,3.4837,3.483,3.4811,3.4823,3.4823,3.4817,3.4762,3.4764,3.4838,3.4838,3.4838,3.4838,3.4838,3.4838,3.5284,3.5274,3.5246,3.5221,3.5192,3.5169,3.5152,3.5126,3.5098,3.5066,3.5042,3.5012,3.4971,3.4934,3.4905,3.4892,3.4882,3.4899,3.488,3.483,3.4821,3.4812,3.4814,3.4897,3.4897,3.4937,3.4937,3.4937]}]]